Location: Lango�lan
(48.1202°N, 3.2340°W)
Time: 03:39:56
(UTC+00:00)

Cosmos-2242 - Pass Details

Date: 23 October 2019
Orbit: 590 x 618 km, 82.5° (Epoch: 19 November)

Event Time Altitude Azimuth Distance (km) Brightness Sun altitude
Rises 06:01:26 0° 353° (N) 2,849 6.3 -7.7°
Reaches altitude 10° 06:03:41 10° 357° (N) 1,938 5.5 -7.4°
Maximum altitude 06:07:55 61° 78° (ENE) 678 3.6 -6.7°
Drops below altitude 10° 06:12:06 10° 159° (SSE) 1,915 6.0 -6.0°
Sets 06:14:19 0° 163° (SSE) 2,811 6.8 -5.6°
